Location: Newark
(45.5000°N, 11.4167°E)
Time: 23:46:59
(UTC+00:00)

A-11 Canister half - Pass Details

Date: 24 August 2019
Orbit: 1514 x 1686 km, 47.2° (Epoch: 15 September)

Event Time Altitude Azimuth Distance (km) Brightness Sun altitude
Rises 23:30:52 0° 293° (WNW) 4,815 11.8 -33.5°
Reaches altitude 10° 23:34:16 10° 285° (WNW) 3,851 11.2 -33.4°
Enters shadow 23:39:35 29° 258° (WSW) 2,670 10.0 -33.3°
Maximum altitude 23:42:52 36° 224° (SW) 2,419 - -33.3°
Drops below altitude 10° 23:51:40 10° 163° (SSE) 3,931 - -33.0°
Sets 23:55:11 0° 155° (SSE) 4,925 - -32.9°
